EW4022 Weather Reports


Display with metric or nautical units.
time (UTC)temp
F
wind
direction
speed
MPH
gust
MPH
rain 1hr
in
rain 24hr
in
rain mn
in
humidity
%
barometer
mb
20240519053012 62 270 0.0 0.0 0.00 0.49 0.00 95 975.0
20240519052512 62 270 0.0 0.0 0.00 0.49 0.00 94 975.1
20240519052011 62 270 0.0 0.0 0.00 0.49 0.00 94 975.1
20240519051510 62 270 0.0 0.0 0.00 0.49 0.00 94 975.1
20240519051011 62 270 0.0 2.0 0.00 0.49 0.00 94 975.1
20240519050509 62 270 0.0 2.0 0.00 0.49 0.00 94 975.2
20240519050009 62 270 0.0 2.0 0.00 0.49 0.00 94 975.1
20240519045508 62 270 0.0 0.0 0.00 0.69 0.00 95 975.2
20240519045009 62 270 0.0 0.0 0.00 0.69 0.00 95 975.1
20240519044508 62 270 0.0 0.0 0.00 0.69 0.00 94 975.2
20240519044012 62 270 0.0 0.0 0.00 0.69 0.00 94 975.1
20240519043507 62 270 0.0 0.0 0.00 0.69 0.00 94 975.1
20240519043007 62 270 0.0 0.0 0.00 0.69 0.00 94 975.1
20240519042506 62 270 0.0 0.0 0.00 0.69 0.00 94 975.1
20240519042008 62 270 0.0 0.0 0.00 0.69 0.00 94 975.1
20240519041508 62 270 0.0 0.0 0.00 0.69 0.00 94 975.2
20240519041006 63 270 0.0 0.0 0.00 0.69 0.00 94 975.1
20240519040504 63 270 0.0 0.0 0.00 0.69 0.00 94 975.1
20240519040004 62 270 0.0 0.0 0.00 0.69 0.00 94 975.2
20240519035505 62 270 0.0 4.0 0.00 0.82 0.69 94 975.3
20240519035003 62 270 1.0 4.0 0.00 0.82 0.69 94 975.2
20240519034503 62 271 0.0 3.0 0.00 0.82 0.69 94 975.2
20240519034003 62 271 0.0 3.0 0.00 0.82 0.69 94 975.3
20240519033502 63 271 1.0 3.0 0.00 0.82 0.69 94 975.3
20240519033007 62 271 0.0 2.0 0.00 0.82 0.69 94 975.4
20240519032502 63 271 0.0 3.0 0.00 0.82 0.69 94 975.3
20240519032001 63 271 0.0 3.0 0.00 0.82 0.69 94 975.4
20240519031502 63 268 0.0 2.0 0.00 0.82 0.69 94 975.4
20240519031003 63 268 0.0 3.0 0.00 0.82 0.69 94 975.3
20240519030501 63 268 0.0 3.0 0.00 0.82 0.69 94 975.3
20240519030102 63 268 0.0 1.0 0.00 0.82 0.69 94 975.3
20240519025603 63 268 0.0 0.0 0.00 0.82 0.69 94 975.3
20240519025059 63 268 0.0 1.0 0.00 0.82 0.69 94 975.2
20240519024601 63 268 0.0 1.0 0.00 0.82 0.69 94 975.0
20240519024057 63 268 0.0 1.0 0.00 0.82 0.69 94 974.9
20240519023557 63 268 0.0 1.0 0.00 0.82 0.69 94 975.0
20240519023056 63 268 0.0 0.0 0.00 0.82 0.69 94 974.9
20240519022600 63 268 0.0 1.0 0.00 0.82 0.69 94 974.9
20240519022100 63 268 0.0 1.0 0.01 0.82 0.69 94 974.9
20240519021554 63 268 0.0 1.0 0.01 0.82 0.69 94 974.8
20240519021054 64 268 0.0 1.0 0.01 0.82 0.69 94 974.7
20240519020552 63 268 0.0 0.0 0.01 0.82 0.69 94 974.6
20240519020054 63 268 0.0 0.0 0.01 0.82 0.69 94 974.4
20240519015552 63 268 0.0 1.0 0.01 0.89 0.69 94 974.5
20240519015051 64 268 0.0 1.0 0.01 0.89 0.69 94 974.6
20240519014551 64 268 0.0 1.0 0.01 0.89 0.69 94 974.5
20240519014049 64 268 0.0 0.0 0.01 0.89 0.69 94 974.4
20240519013549 64 268 0.0 2.0 0.01 0.89 0.69 94 974.3
20240519013049 64 268 0.0 2.0 0.01 0.89 0.69 93 974.2
20240519012547 64 268 0.0 3.0 0.01 0.89 0.69 93 974.1
20240519012047 64 268 0.0 3.0 0.00 0.88 0.68 93 974.2
20240519011547 64 268 0.0 2.0 0.00 0.88 0.68 93 974.1
20240519011047 64 268 0.0 2.0 0.00 0.88 0.68 93 974.1
20240519010547 64 268 0.0 4.0 0.00 0.88 0.68 93 974.2
20240519010100 64 262 1.0 5.0 0.00 0.88 0.68 93 974.0
20240519005545 64 227 1.0 5.0 0.01 0.89 0.68 93 974.0
20240519005044 64 232 2.0 5.0 0.01 0.89 0.68 93 973.9
20240519004544 64 259 2.0 6.0 0.01 0.89 0.68 93 973.8
20240519004042 65 12 2.0 5.0 0.01 0.89 0.68 93 973.8
20240519003542 65 360 1.0 5.0 0.01 0.89 0.68 94 973.8
20240519003042 65 360 0.0 2.0 0.02 0.89 0.68 94 973.9
20240519002541 65 360 0.0 2.0 0.02 0.89 0.68 93 973.8
20240519002044 65 360 0.0 0.0 0.03 0.89 0.68 93 974.0
20240519001541 65 360 0.0 1.0 0.04 0.89 0.68 93 974.0
20240519001041 65 360 0.0 3.0 0.05 0.89 0.68 93 974.0
20240519000544 65 360 0.0 3.0 0.06 0.89 0.68 93 973.9
20240519000102 65 360 0.0 3.0 0.07 0.89 0.68 93 973.9
20240518235544 65 360 0.0 1.0 0.07 0.92 0.67 93 973.8
20240518235041 66 360 0.0 3.0 0.08 0.92 0.67 93 973.8
20240518234541 66 360 1.0 3.0 0.08 0.92 0.67 92 973.7
20240518234044 66 360 0.0 2.0 0.09 0.92 0.67 92 973.7
20240518233540 66 360 0.0 2.0 0.09 0.92 0.67 92 973.7
20240518233040 66 360 0.0 2.0 0.10 0.91 0.66 91 973.6
20240518232539 66 360 0.0 2.0 0.10 0.91 0.66 91 973.5
20240518232038 66 360 0.0 3.0 0.09 0.90 0.65 91 973.4
20240518231541 66 360 0.0 4.0 0.08 0.89 0.64 90 973.4
20240518231039 66 360 0.0 4.0 0.07 0.88 0.63 90 973.5
20240518230539 67 9 0.0 1.0 0.06 0.87 0.62 90 973.3
20240518230039 67 9 0.0 5.0 0.05 0.86 0.61 89 973.2
20240518225541 67 9 1.0 5.0 0.04 0.86 0.60 89 973.1
20240518225037 67 32 1.0 4.0 0.03 0.85 0.59 88 973.1
20240518224538 68 13 0.0 3.0 0.03 0.85 0.59 88 973.1
20240518224038 68 13 0.0 3.0 0.02 0.84 0.57 87 973.2
20240518223537 68 13 1.0 3.0 0.02 0.84 0.57 87 973.2
20240518223054 68 13 0.0 4.0 0.00 0.82 0.56 86 973.2
20240518222537 69 17 1.0 3.0 0.00 0.82 0.56 85 973.3
20240518222037 69 20 0.0 3.0 0.00 0.82 0.56 85 973.0
20240518221539 69 19 1.0 4.0 0.00 0.82 0.56 85 972.8
20240518221040 69 19 1.0 5.0 0.00 0.82 0.56 85 972.5
20240518220537 69 22 1.0 5.0 0.00 0.82 0.56 84 972.6
20240518220042 69 273 1.0 5.0 0.00 0.82 0.56 84 972.8
20240518215537 69 267 1.0 7.0 0.00 0.86 0.56 85 972.7
20240518215036 69 268 2.0 7.0 0.00 0.86 0.56 84 972.5
20240518214536 69 271 1.0 6.0 0.00 0.86 0.56 84 972.5
20240518214036 69 27 2.0 6.0 0.00 0.86 0.56 85 972.7
20240518213539 69 35 2.0 6.0 0.00 0.86 0.56 85 972.8
20240518213038 69 263 1.0 6.0 0.00 0.86 0.56 85 972.8
20240518212535 69 263 2.0 6.0 0.00 0.86 0.56 85 972.8
20240518212035 69 236 2.0 5.0 0.00 0.86 0.56 85 972.7
20240518211550 69 271 2.0 7.0 0.00 0.86 0.56 85 972.6
20240518211034 69 271 1.0 7.0 0.00 0.86 0.56 85 972.6
20240518210534 70 271 1.0 5.0 0.00 0.86 0.56 84 972.8
20240518210040 70 239 2.0 7.0 0.00 0.86 0.56 84 972.8
20240518205537 70 205 2.0 7.0 0.00 0.86 0.56 83 972.7
20240518205035 70 240 2.0 5.0 0.00 0.86 0.56 83 972.6
20240518204534 71 271 1.0 6.0 0.00 0.86 0.56 83 972.5
20240518204035 71 274 1.0 6.0 0.00 0.86 0.56 82 972.6
20240518203536 71 360 2.0 6.0 0.00 0.86 0.56 82 972.7
20240518203034 71 360 1.0 4.0 0.00 0.86 0.56 82 972.7
20240518202534 71 360 0.0 7.0 0.00 0.86 0.56 82 972.6
20240518202034 72 360 1.0 8.0 0.00 0.86 0.56 82 972.6
20240518201533 72 252 2.0 8.0 0.00 0.86 0.56 82 972.6
20240518201032 72 275 1.0 6.0 0.00 0.86 0.56 82 972.7
20240518200532 72 275 1.0 8.0 0.00 0.86 0.56 81 972.7
20240518200032 72 271 2.0 8.0 0.00 0.86 0.56 81 972.6
20240518195531 72 35 2.0 8.0 0.00 0.86 0.56 81 972.6
20240518195032 73 360 2.0 5.0 0.00 0.86 0.56 80 972.7
20240518194536 73 271 1.0 7.0 0.00 0.86 0.56 80 972.6
20240518194034 73 267 2.0 7.0 0.00 0.86 0.56 79 972.5
20240518193533 74 55 2.0 6.0 0.00 0.86 0.56 79 972.6
20240518193031 74 271 1.0 6.0 0.00 0.86 0.56 79 972.6
20240518192530 74 19 2.0 7.0 0.00 0.86 0.56 78 972.6
20240518192030 74 39 2.0 7.0 0.00 0.86 0.56 77 972.5
20240518191529 75 24 2.0 7.0 0.00 0.86 0.56 77 972.6
20240518191030 75 274 1.0 7.0 0.00 0.86 0.56 77 972.6
20240518190532 75 5 1.0 7.0 0.00 0.86 0.56 77 972.7
20240518190031 75 273 2.0 8.0 0.00 0.86 0.56 77 972.6
20240518185533 75 17 1.0 8.0 0.00 0.86 0.56 77 972.5
20240518185029 75 22 1.0 6.0 0.00 0.86 0.56 76 972.6
20240518184535 75 360 1.0 4.0 0.00 0.86 0.56 77 972.7
20240518184028 75 5 1.0 7.0 0.00 0.86 0.56 78 972.8
20240518183528 75 195 3.0 7.0 0.00 0.86 0.56 77 972.8
20240518183031 75 30 3.0 7.0 0.00 0.86 0.56 77 972.8
20240518182531 75 227 2.0 6.0 0.00 0.86 0.56 78 972.9
20240518182025 75 13 1.0 6.0 0.00 0.86 0.56 78 973.0
20240518181525 75 26 2.0 6.0 0.00 0.86 0.56 79 973.1
20240518181022 74 215 2.0 6.0 0.00 0.86 0.56 81 973.2
20240518180521 73 266 2.0 6.0 0.00 0.86 0.56 81 973.2
20240518180021 73 268 1.0 6.0 0.00 0.86 0.56 82 973.3
20240518175520 72 269 1.0 4.0 0.00 0.86 0.56 83 973.2
20240518175020 72 250 1.0 4.0 0.00 0.86 0.56 84 973.2
20240518174528 72 250 1.0 4.0 0.00 0.86 0.56 84 973.3
20240518174020 72 248 0.0 4.0 0.00 0.86 0.56 83 973.5
20240518173522 72 248 1.0 4.0 0.00 0.86 0.56 81 973.6
20240518173022 73 249 1.0 4.0 0.00 0.86 0.56 81 973.5
20240518172518 73 14 0.0 3.0 0.00 0.86 0.56 80 973.5
20240518172021 73 17 0.0 4.0 0.00 0.86 0.56 81 973.6
20240518171517 73 17 1.0 4.0 0.00 0.86 0.56 81 973.6
20240518171016 73 23 2.0 4.0 0.00 0.86 0.56 81 973.7
20240518170516 72 274 1.0 7.0 0.00 0.86 0.56 82 973.8
20240518170015 72 15 2.0 6.0 0.00 0.86 0.56 83 973.7
20240518165515 72 360 2.0 6.0 0.00 0.86 0.56 83 973.8
20240518165015 72 269 1.0 5.0 0.00 0.86 0.56 83 973.9
20240518164515 72 19 3.0 5.0 0.00 0.86 0.56 82 973.8
20240518164018 72 271 1.0 6.0 0.00 0.86 0.56 82 973.8
20240518163514 72 271 2.0 4.0 0.00 0.86 0.56 82 973.7
20240518163014 72 271 0.0 3.0 0.00 0.86 0.56 82 973.7
20240518162514 72 271 0.0 6.0 0.00 0.86 0.56 82 973.8
20240518162016 72 271 1.0 6.0 0.00 0.86 0.56 81 973.7
20240518161512 72 271 1.0 4.0 0.00 0.86 0.56 82 973.7
20240518161011 72 271 2.0 4.0 0.00 0.86 0.56 83 974.0
20240518160510 72 271 1.0 4.0 0.00 0.86 0.56 84 973.9
20240518160009 71 271 1.0 4.0 0.00 0.86 0.56 85 974.0
20240518155506 71 271 1.0 4.0 0.00 0.86 0.56 87 973.9
20240518155005 70 263 1.0 4.0 0.00 0.86 0.56 87 973.7
20240518154506 69 264 2.0 4.0 0.00 0.86 0.56 86 973.6
20240518154005 69 264 2.0 5.0 0.00 0.86 0.56 87 973.7
20240518153505 69 262 2.0 5.0 0.00 0.86 0.56 87 973.5
20240518153005 70 245 1.0 4.0 0.00 0.86 0.56 89 973.5
20240518152503 69 246 2.0 5.0 0.00 0.86 0.56 90 973.5
20240518152004 69 249 1.0 5.0 0.00 0.86 0.56 90 973.3
20240518151601 68 254 1.0 4.0 0.00 0.86 0.56 91 973.4
20240518151100 68 262 0.0 4.0 0.00 0.86 0.56 91 973.4
20240518150558 67 256 0.0 4.0 0.00 0.86 0.56 92 973.4
20240518150103 67 256 1.0 4.0 0.00 0.86 0.56 92 973.4
20240518145558 67 256 0.0 4.0 0.00 0.86 0.56 93 973.4
20240518145056 67 256 0.0 4.0 0.00 0.86 0.56 93 973.6
20240518144637 67 256 0.0 3.0 0.00 0.86 0.56 94 973.5
20240518144056 66 256 0.0 3.0 0.00 0.86 0.56 94 973.6
20240518143555 66 256 0.0 3.0 0.00 0.86 0.56 94 973.6
20240518143056 66 256 1.0 3.0 0.00 0.86 0.56 93 973.6
20240518142554 66 256 1.0 3.0 0.00 0.86 0.56 94 973.8
20240518142054 66 256 0.0 3.0 0.00 0.86 0.56 94 973.7
20240518141604 66 256 0.0 3.0 0.00 0.86 0.56 94 973.6
20240518141054 66 256 0.0 3.0 0.00 0.86 0.56 94 973.5
20240518140555 66 256 1.0 3.0 0.00 0.86 0.56 94 973.7
20240518140054 66 256 0.0 2.0 0.00 0.86 0.56 94 973.7
20240518135555 66 256 0.0 2.0 0.00 0.86 0.56 95 973.7
20240518135053 66 256 0.0 3.0 0.00 0.86 0.56 95 973.7
20240518134556 66 256 1.0 4.0 0.00 0.86 0.56 95 973.8
20240518134055 66 9 1.0 5.0 0.00 0.86 0.56 95 973.7
20240518133552 66 360 1.0 5.0 0.00 0.86 0.56 95 973.6
20240518133058 67 5 1.0 4.0 0.00 0.86 0.56 96 973.5
20240518132550 66 5 2.0 4.0 0.00 0.86 0.56 96 973.4
20240518132053 66 5 0.0 4.0 0.00 0.86 0.56 96 973.3
20240518131549 66 271 1.0 4.0 0.00 0.86 0.56 96 973.4
20240518131049 66 271 0.0 4.0 0.00 0.86 0.56 97 973.5
20240518130549 66 271 0.0 4.0 0.00 0.86 0.56 97 973.5
20240518130048 66 360 1.0 4.0 0.00 0.86 0.56 97 973.5
20240518125549 66 276 0.0 3.0 0.00 0.86 0.56 97 973.5
20240518125047 66 276 0.0 6.0 0.00 0.86 0.56 97 973.5
20240518124547 66 263 0.0 4.0 0.00 0.86 0.56 97 973.3
20240518124046 66 226 0.0 3.0 0.00 0.86 0.56 97 973.2
20240518123546 66 226 1.0 3.0 0.00 0.86 0.56 97 973.1
20240518123046 65 226 0.0 3.0 0.00 0.86 0.56 97 973.3
20240518122547 65 223 1.0 3.0 0.00 0.86 0.56 97 973.2
20240518122044 65 218 0.0 3.0 0.00 0.86 0.56 97 973.3
20240518121549 65 217 0.0 3.0 0.00 0.86 0.56 97 973.2
20240518121043 65 217 0.0 3.0 0.00 0.86 0.56 97 973.2
20240518120542 66 217 0.0 1.0 0.00 0.86 0.56 97 973.1
20240518120101 65 217 0.0 1.0 0.00 0.86 0.56 97 972.9
20240518115542 65 217 0.0 2.0 0.00 0.86 0.56 97 972.9
20240518115042 65 217 0.0 2.0 0.00 0.86 0.56 97 972.9
20240518114542 65 217 0.0 2.0 0.00 0.86 0.56 97 972.8
20240518114042 65 217 0.0 2.0 0.00 0.86 0.56 97 972.9
20240518113541 65 217 0.0 2.0 0.00 0.86 0.56 97 972.7
20240518113044 65 217 0.0 2.0 0.00 0.86 0.56 97 972.6
20240518112544 65 217 0.0 1.0 0.00 0.86 0.56 97 972.7
20240518112040 65 246 0.0 2.0 0.00 0.86 0.56 97 972.6
20240518111541 65 246 0.0 2.0 0.00 0.86 0.56 97 972.6
20240518111040 65 246 0.0 1.0 0.00 0.86 0.56 97 972.7
20240518110540 65 246 0.0 0.0 0.00 0.86 0.56 97 972.6
20240518110039 65 246 0.0 0.0 0.00 0.86 0.56 97 972.7
20240518105540 65 246 0.0 0.0 0.00 0.86 0.56 97 972.6
20240518105044 65 246 0.0 0.0 0.00 0.86 0.56 97 972.7
20240518104558 65 246 0.0 0.0 0.00 0.86 0.56 97 972.4
20240518104039 65 246 0.0 0.0 0.00 0.86 0.56 97 972.4
20240518103540 65 246 0.0 0.0 0.00 0.86 0.56 97 972.5
20240518103044 65 246 0.0 0.0 0.00 0.86 0.56 97 972.5
20240518102538 65 246 0.0 0.0 0.00 0.86 0.56 97 972.3
20240518102038 65 246 0.0 0.0 0.00 0.86 0.56 97 972.1
20240518101546 65 246 0.0 0.0 0.00 0.86 0.56 97 972.1
20240518101040 65 246 0.0 0.0 0.00 0.86 0.56 97 972.2
20240518100537 65 246 0.0 0.0 0.01 0.86 0.56 97 972.1
20240518100039 65 246 0.0 0.0 0.01 0.86 0.56 97 972.1
20240518095536 65 246 0.0 0.0 0.01 0.86 0.56 97 972.0
20240518095037 65 246 0.0 0.0 0.01 0.86 0.56 97 971.8
20240518094537 65 246 0.0 0.0 0.01 0.86 0.56 97 971.7
20240518094039 65 246 0.0 0.0 0.02 0.86 0.56 97 971.7
20240518093536 65 246 0.0 0.0 0.04 0.86 0.56 97 971.7
20240518093036 65 246 0.0 0.0 0.04 0.86 0.56 97 971.7
20240518092535 65 246 0.0 0.0 0.04 0.86 0.56 97 971.6
20240518092035 65 246 0.0 0.0 0.04 0.86 0.56 97 971.5
20240518091635 65 246 0.0 0.0 0.04 0.86 0.56 97 971.4
20240518091035 65 246 0.0 0.0 0.04 0.86 0.56 97 971.4
20240518090535 65 246 0.0 0.0 0.03 0.85 0.55 97 971.3
20240518090035 65 246 0.0 0.0 0.04 0.85 0.55 97 971.3
20240518085539 65 246 0.0 0.0 0.04 0.85 0.55 97 971.3
20240518085034 65 246 0.0 0.0 0.04 0.85 0.55 97 971.2
20240518084539 65 246 0.0 0.0 0.04 0.85 0.55 97 971.3
20240518084036 65 246 0.0 0.0 0.03 0.84 0.54 97 971.4
20240518083534 65 246 0.0 0.0 0.01 0.82 0.52 97 971.4
20240518083048 65 246 0.0 0.0 0.01 0.82 0.52 97 971.5
20240518082535 65 246 0.0 0.0 0.01 0.82 0.52 97 971.4
20240518082032 65 246 0.0 0.0 0.01 0.82 0.52 97 971.4
20240518081532 65 246 0.0 0.0 0.01 0.82 0.52 97 971.4
20240518081042 65 246 0.0 2.0 0.01 0.82 0.52 97 971.3
20240518080532 65 246 0.0 2.0 0.01 0.82 0.52 97 971.2
20240518080034 65 246 0.0 1.0 0.00 0.81 0.51 97 971.2
20240518075532 65 246 0.0 2.0 0.00 0.81 0.51 97 971.1
20240518075035 65 246 0.0 3.0 0.00 0.81 0.51 97 971.0
20240518074533 65 246 0.0 3.0 0.01 0.81 0.51 97 971.0
20240518074033 65 246 0.0 2.0 0.01 0.81 0.51 97 971.1
20240518073532 65 246 0.0 3.0 0.02 0.81 0.51 97 970.9
20240518073031 65 246 0.0 2.0 0.05 0.81 0.51 97 970.9
20240518072530 65 246 1.0 3.0 0.08 0.81 0.51 97 970.9
20240518072035 65 246 0.0 3.0 0.10 0.81 0.51 96 970.9
20240518071533 65 246 0.0 2.0 0.12 0.81 0.51 97 970.9
20240518071029 65 246 0.0 2.0 0.14 0.81 0.51 96 971.1
20240518070529 65 246 0.0 2.0 0.16 0.81 0.51 96 971.1
20240518070031 65 246 0.0 2.0 0.17 0.81 0.51 96 971.1
20240518065528 65 246 0.0 3.0 0.17 0.81 0.51 96 971.0
20240518065028 65 246 1.0 3.0 0.18 0.81 0.51 96 971.0
20240518064527 65 246 0.0 3.0 0.19 0.80 0.50 96 971.0
20240518064027 65 246 0.0 3.0 0.20 0.80 0.50 96 971.0
20240518063529 65 246 0.0 2.0 0.20 0.79 0.49 96 971.2
20240518063027 65 246 0.0 3.0 0.17 0.75 0.45 96 971.3
20240518062525 65 246 1.0 2.0 0.16 0.73 0.43 96 971.3
20240518062025 65 246 0.0 2.0 0.15 0.71 0.41 96 971.2
20240518061524 65 246 0.0 2.0 0.14 0.69 0.39 96 971.4
20240518061024 65 246 0.0 2.0 0.14 0.67 0.37 96 971.4
20240518060522 65 246 0.0 2.0 0.13 0.65 0.35 96 971.6
20240518060022 65 246 0.0 2.0 0.13 0.64 0.34 96 971.6
20240518055523 65 246 0.0 2.0 0.15 0.64 0.34 96 971.7
20240518055021 65 246 0.0 2.0 0.16 0.63 0.33 96 971.7
20240518054521 65 246 0.0 2.0 0.18 0.61 0.31 96 971.8
20240518054020 65 246 0.0 2.0 0.17 0.60 0.30 96 971.8
20240518053519 65 246 0.0 2.0 0.17 0.59 0.28 96 971.9